Home   Weather   Grenchen   Past weeks

Flag for Switzerland Past Weather in Grenchen, Solothurn, Switzerland — Yesterday and Last 2 Weeks

Now
76 °F

Mild.


Feels Like: 78 °F
Forecast: 57 / 83 °F
Wind: 3 mph from West

Location: Grenchen

Current Time: May 28, 2017 at 12:39:44 pm

Latest Report: May 28, 2017 at 11:00 am


Visibility: N/A

Pressure: 30.08 "Hg

Humidity: 56%

Dew Point: 59 °F

Location of GrenchenLocation

Past Weather in Grenchen — Graph

°F

Grenchen Temperature Yesterday

Maximum temperature yesterday: 84 °F (at 5:00 pm)
Minimum temperature yesterday: 51 °F (at 6:00 am)
Average temperature yesterday: 68 °F

High & Low Weather Summary for the Past Weeks

 TemperatureHumidityPressure
High84 °F (May 27, 5:00 pm)100% (May 20, 7:00 am)30.44 "Hg (May 20, 7:00 am)
Low39 °F (May 21, 6:00 am)30% (May 24, 6:00 pm)29.80 "Hg (May 18, 8:00 pm)
Average61 °F70%30.14 "Hg
* Reported May 13 11:00 am — May 28 11:00 am, Grenchen. Weather by CustomWeather, © 2017

Note: Actual official high and low records may vary slightly from our data, if they occured in-between our weather recording intervals... More about our weather records

Advertising

Grenchen Weather History for the Previous 24 Hours

Scroll right to see more
 ConditionsComfort  
Time TempWeatherWind HumidityBarometerVisibility
11:00 am
Sun, May 28
76 °FMild.3 mph56%30.08 "HgN/A
10:00 am73 °FMild.3 mph63%30.09 "HgN/A
9:00 am69 °FMild.2 mph73%30.11 "HgN/A
8:00 am64 °FMild.2 mph85%30.13 "HgN/A
7:00 am59 °FCool.1 mph92%30.14 "HgN/A
6:00 am58 °FCool.No wind96%30.14 "HgN/A
5:00 am56 °FCool.2 mph97%30.14 "HgN/A
4:00 am59 °FCool.1 mph93%30.13 "HgN/A
3:00 am61 °FCool.1 mph92%30.12 "HgN/A
2:00 am62 °FCool.No wind90%30.12 "HgN/A
1:00 am64 °FMild.1 mph84%30.11 "HgN/A
12:00 am66 °FMild.1 mph79%30.09 "HgN/A
11:00 pm
Sat, May 27
68 °FMild.2 mph75%30.08 "HgN/A
10:00 pm70 °FMild.5 mph71%30.06 "HgN/A
9:00 pm73 °FMild.2 mph66%30.03 "HgN/A
8:00 pm80 °FWarm.2 mph49%30.00 "HgN/A
7:00 pm81 °FWarm.5 mph49%29.99 "HgN/A
6:00 pm83 °FWarm.1 mph40%29.98 "HgN/A
5:00 pm84 °FPleasantly warm.2 mph39%29.99 "HgN/A
4:00 pm83 °FPleasantly warm.3 mph40%30.00 "HgN/A
3:00 pm81 °FWarm.2 mph42%30.02 "HgN/A
2:00 pm80 °FWarm.3 mph43%30.04 "HgN/A
1:00 pm77 °FWarm.1 mph44%30.06 "HgN/A
12:00 pm75 °FMild.2 mph44%30.08 "HgN/A
Weather by CustomWeather, © 2017

See weather overviewHow to use our weather pages